Temp
23 23 23 22 22 21 21 21 21 20 20 20 19 20 20 20 20 19 19 19 18 19 19 19 19 19 18 18 19 18 19 19 19 19 19 19 19 19 19 19 19 18 18
24 23 23 22 22 21 21 21 21 21 20 20 19 19 19 20 20 19 19 18 19 19 19 19 19 18 18 18 18 19 19 19 19 19 20 19 19 19 19 19 18 18 18
22 22 22 21 21 21 21 21 21 21 21 20 20 21 19 19 20 19 19 19 19 19 19 19 19 18 18 18 18 17 19 19 19 19 19 19 19 18 18 18 18 18 17
22 22 22 21 21 21 21 21 21 21 21 20 20 20 19 19 19 19 19 19 19 19 19 19 18 18 18 17 17 18 19 19 19 19 20 20 18 18 17 17 17 17 17
21 22 21 22 21 21 21 21 21 21 21 20 20 20 20 19 19 19 19 19 19 19 19 19 19 18 18 17 17 19 19 20 20 20 20 20 19 17 17 17 17 18 17
20 21 21 21 21 21 21 21 21 21 20 20 20 20 20 19 19 19 19 19 19 19 19 19 19 19 18 17 18 19 19 20 20 20 20 19 19 17 18 18 18 17 16
20 20 20 20 21 21 21 21 21 21 20 20 20 20 20 20 19 19 19 19 19 19 19 19 18 19 18 18 18 18 19 20 20 20 20 19 19 17 17 18 17 17 16
20 20 20 20 20 21 21 20 20 20 20 20 20 20 20 20 19 19 19 19 19 19 19 19 19 19 18 18 18 19 19 20 20 20 20 19 19 17 17 17 17 17 17
20 20 20 20 20 20 20 20 20 20 20 20 20 20 20 20 19 19 19 19 19 19 19 19 19 18 18 18 18 19 20 20 20 20 20 19 18 17 17 17 17 17 17
20 20 20 20 20 20 20 20 20 20 20 20 20 20 19 19 19 19 19 19 19 19 19 19 19 18 18 18 18 19 20 20 20 20 19 19 19 17 17 17 17 17 17
20 20 19 20 20 20 20 20 20 20 20 20 19 19 19 19 19 19 19 19 19 19 19 19 19 18 18 18 18 19 19 20 20 20 20 20 19 17 17 17 17 17 17
19 19 19 19 20 20 20 20 20 20 20 19 19 19 19 19 19 20 20 19 19 19 19 19 18 18 18 18 19 19 19 20 20 20 20 20 19 17 17 17 17 17 17
19 19 19 19 19 20 19 19 20 20 20 19 19 19 20 20 20 20 20 19 19 18 18 18 18 18 18 18 19 19 20 20 20 20 20 20 19 18 17 17 17 17 17
18 18 18 18 18 18 19 19 19 20 20 20 20 20 20 21 21 21 20 20 19 18 18 18 18 18 18 19 19 20 20 20 20 20 20 20 19 19 18 17 17 17 17
18 18 18 18 18 18 18 19 19 20 20 21 21 21 21 21 22 21 20 20 19 18 18 18 18 18 18 19 20 20 20 20 20 20 20 20 20 19 19 18 17 16 17
18 18 18 18 18 17 18 18 19 19 20 20 21 22 21 21 22 21 21 20 20 19 18 19 19 19 19 19 20 20 20 20 20 20 20 20 20 19 19 19 18 17 17
19 18 18 18 18 17 17 17 18 19 19 20 21 21 22 21 21 21 21 21 20 20 19 19 20 20 20 20 20 20 20 20 20 21 20 20 20 20 19 19 19 19 18
18 18 18 17 17 18 17 17 17 18 18 19 20 20 21 21 21 21 21 21 20 20 20 20 20 20 20 20 20 20 20 20 20 20 20 20 20 20 19 19 19 19 19
17 17 17 17 17 17 17 17 17 18 18 18 18 19 19 20 21 21 20 21 21 20 19 19 20 20 20 20 20 20 20 20 20 20 20 20 20 20 20 19 19 19 19
14 16 16 16 17 17 17 17 17 17 18 17 18 18 19 19 19 20 20 19 20 20 19 19 19 19 19 19 19 19 20 20 19 20 20 20 20 20 20 20 19 19 19
12 14 15 15 16 16 17 17 17 17 18 17 17 18 18 18 18 19 19 19 19 19 19 18 19 18 18 19 19 18 18 18 18 19 19 20 20 20 20 20 19 19 19
10 12 13 15 15 15 16 17 17 17 18 18 17 17 17 17 17 18 18 18 19 18 18 18 18 17 17 18 17 17 15 17 18 18 19 19 19 19 20 20 19 19 19
9 10 11 13 15 15 15 16 16 16 17 17 16 16 16 16 16 17 18 18 18 18 17 18 18 17 17 17 17 17 15 15 17 19 18 18 18 18 19 19 19 19 19
9 9 11 12 13 15 15 15 16 16 15 17 16 16 16 16 16 16 17 17 17 18 18 17 18 18 17 16 16 16 17 18 16 15 19 19 19 19 19 19 19 19 19
8 9 10 11 12 14 15 15 15 15 16 16 15 15 16 16 17 17 17 17 17 18 17 17 17 17 17 17 16 17 16 16 16 15 17 16 19 19 19 19 19 19 18
7 8 10 11 12 14 14 15 15 15 15 16 16 15 15 16 16 16 17 16 17 17 17 17 17 17 17 17 17 16 16 16 16 16 15 16 17 18 19 19 19 18 18
Height
785 785 786 787 789 791 792 795 797 798 800 802 803 804 806 807 809 810 811 812 814 815 816 816 817 819 819 820 821 822 823 823 824 825 825 826 827 828 828 828 828 829 830
785 784 785 787 789 791 793 796 798 799 802 802 805 806 807 809 810 812 813 814 816 817 818 818 819 821 821 822 823 824 825 826 826 827 827 828 828 829 830 830 831 831 832
785 784 785 787 789 791 794 796 798 799 802 804 805 808 808 810 811 813 814 816 817 818 819 819 821 822 823 824 825 826 826 827 828 828 829 830 830 831 831 832 832 833 833
786 784 785 787 789 791 794 796 798 800 802 804 806 808 810 811 812 814 815 817 818 819 820 821 822 823 825 826 827 827 828 829 830 830 832 831 833 833 833 833 833 833 834
785 786 786 788 790 791 793 796 798 800 802 805 806 808 810 811 813 814 816 817 819 819 821 822 823 824 826 827 828 828 829 830 831 832 834 833 833 834 835 835 835 835 835
786 786 786 789 790 792 794 796 798 800 803 804 807 808 810 811 812 814 816 818 819 820 821 823 824 825 827 828 829 830 831 831 832 832 833 834 834 835 835 835 835 836 836
788 787 788 789 791 792 795 796 798 800 803 805 807 809 810 811 812 814 816 817 819 820 821 823 824 826 827 828 830 831 832 833 833 834 834 834 835 835 836 836 837 837 838
789 789 789 789 790 792 795 797 798 800 802 804 806 808 809 810 812 814 815 817 819 820 821 823 824 826 827 829 830 831 832 833 833 835 834 834 835 836 836 837 837 838 838
790 789 789 790 790 791 793 795 798 800 802 803 805 807 808 809 811 813 814 816 818 820 821 822 824 826 827 828 829 831 832 833 833 834 835 835 836 837 837 837 838 838 838
791 790 789 789 790 791 792 793 795 797 800 802 804 805 807 808 810 811 813 815 817 819 820 822 823 825 826 828 829 830 831 832 833 834 834 834 836 837 837 838 838 839 839
792 791 790 789 789 790 792 791 793 795 797 799 801 804 806 807 809 810 812 814 816 817 819 820 822 824 825 827 828 829 830 832 833 834 834 834 835 836 837 837 838 838 839
791 791 790 789 789 789 789 790 791 792 794 796 798 800 802 804 806 808 810 812 814 816 817 818 820 822 824 825 826 828 829 830 831 833 833 834 834 835 836 836 837 837 837
789 789 789 788 788 787 787 788 789 790 791 792 795 796 799 801 802 805 807 809 811 814 815 817 818 819 821 823 824 826 827 828 830 831 831 832 833 834 835 835 835 835 836
786 786 786 786 786 786 785 785 785 787 788 788 790 793 794 797 799 801 802 806 808 811 813 814 816 817 819 821 823 824 825 826 827 828 828 829 830 831 832 833 833 834 834
784 782 782 782 782 782 783 782 782 782 784 785 785 787 790 792 795 797 798 802 804 807 811 812 813 815 817 818 819 821 823 824 825 826 825 827 827 828 829 830 831 832 831
780 779 778 778 778 778 778 778 779 778 778 780 782 782 785 788 791 793 795 797 800 802 807 809 810 812 813 815 817 818 820 821 822 823 823 823 824 824 825 826 827 827 828
776 776 775 775 774 773 773 774 774 774 774 775 776 779 781 783 786 788 789 792 795 797 801 805 807 809 810 812 813 814 816 817 818 819 819 820 821 821 821 821 822 823 824
773 772 771 771 770 769 769 769 769 770 769 770 772 774 776 778 781 783 784 785 790 793 796 799 802 804 806 808 809 811 812 813 814 814 815 815 816 816 816 817 817 818 819
770 768 767 765 764 764 764 764 765 766 765 765 767 768 771 773 775 777 779 781 782 785 790 794 798 800 802 803 804 806 808 809 809 810 810 811 811 810 811 812 812 813 813
768 765 762 760 758 759 758 759 760 761 761 760 760 762 765 767 769 770 773 776 780 782 787 788 791 795 797 798 800 802 802 804 804 803 804 806 806 806 807 808 808 808 809
765 761 757 753 753 754 753 753 754 754 756 755 756 757 759 762 763 763 767 772 775 778 781 783 785 791 792 793 798 799 799 799 799 798 798 799 800 801 801 802 803 804 804
763 757 752 748 747 747 748 748 750 750 751 752 752 753 754 756 758 757 759 763 769 772 775 777 778 782 786 788 792 795 797 795 789 790 791 792 793 795 796 796 797 798 798
757 752 747 744 740 741 742 744 745 746 746 745 748 749 750 752 753 754 754 756 761 765 769 770 775 778 778 782 785 789 793 792 783 780 781 782 784 786 788 789 790 791 793
748 744 741 738 736 735 737 738 739 741 742 741 742 745 746 747 747 749 751 753 753 758 760 764 769 772 771 774 777 778 779 781 784 783 777 777 778 779 780 782 784 785 787
744 737 734 733 731 730 732 734 736 737 739 739 740 741 741 741 742 744 746 749 748 751 753 757 761 766 768 770 772 771 774 775 778 781 779 777 776 775 776 776 778 779 780
744 736 730 727 726 727 728 730 731 733 734 735 736 737 737 737 738 739 742 744 746 747 747 751 756 759 759 764 766 767 770 770 771 773 774 772 772 770 770 770 772 773 774
Wind_Speed
9 2 5 10 12 12 13 13 13 12 11 10 9 10 9 9 10 11 11 10 10 10 10 11 13 12 10 10 13 14 11 12 13 13 13 14 15 14 14 11 12 16 16
12 4 7 12 13 14 12 12 13 13 11 11 10 8 8 9 10 10 10 10 9 8 9 10 13 11 11 10 11 9 11 12 13 13 14 14 13 12 12 12 12 15 17
16 4 9 14 13 14 12 13 14 13 12 11 10 9 8 9 10 10 10 9 9 8 7 11 12 10 10 10 9 9 13 15 15 12 10 13 14 13 15 16 17 15 15
13 5 10 15 14 15 13 12 13 14 13 12 11 11 8 9 9 10 10 10 9 10 10 10 9 9 9 10 9 10 14 14 12 14 13 11 13 12 12 12 13 13 12
12 4 10 11 14 15 15 13 12 13 12 13 11 10 8 8 9 10 10 11 9 8 13 12 8 7 9 8 8 11 14 11 9 11 12 10 6 10 11 11 10 9 10
10 9 0 10 13 14 15 14 13 13 14 13 10 10 8 9 10 10 9 12 12 10 11 10 8 8 9 9 8 9 12 10 11 6 7 8 5 9 8 7 9 10 10
13 8 6 7 10 12 13 14 13 13 13 13 11 10 9 9 9 11 11 14 14 11 11 8 8 9 9 8 6 6 8 7 8 7 6 2 4 8 8 8 8 8 8
14 10 9 4 10 13 13 13 13 13 14 14 12 11 12 10 10 12 12 16 15 12 11 10 10 10 9 8 6 6 8 8 8 5 4 2 5 8 8 7 7 7 7
11 10 8 5 7 12 13 15 14 14 14 13 13 13 12 11 11 13 12 16 16 13 11 11 11 9 8 8 7 6 7 9 7 8 5 3 6 7 6 5 5 5 6
9 10 8 5 3 8 12 16 17 16 15 14 14 14 13 12 13 15 13 15 17 14 12 12 12 10 9 9 8 6 7 10 5 5 4 5 4 6 5 4 4 3 3
10 10 10 7 3 3 11 13 15 18 18 17 17 15 13 13 14 15 15 15 18 16 14 14 14 12 11 10 9 7 8 10 6 4 10 7 6 6 5 4 4 3 2
13 12 13 9 9 7 6 7 15 17 20 19 19 18 17 17 15 16 17 17 19 18 16 16 16 14 12 11 11 10 9 8 4 7 8 7 7 8 7 6 5 5 4
17 15 14 15 12 11 10 10 11 16 19 21 19 18 18 18 18 22 21 19 20 21 18 18 18 18 15 13 10 9 11 8 10 9 10 8 8 9 9 8 8 7 7
18 18 16 17 18 15 13 13 17 18 20 22 24 23 23 19 20 22 22 23 22 23 20 20 20 21 18 16 17 11 9 9 11 9 11 11 9 11 11 11 10 10 9
20 21 20 18 19 19 17 16 17 22 18 24 23 24 28 24 22 21 21 22 24 23 22 20 19 18 19 18 16 16 15 14 14 12 12 11 11 11 13 13 13 13 12
22 23 21 19 18 20 21 21 19 20 26 21 23 26 26 25 24 18 21 23 24 27 22 23 23 22 22 21 21 19 18 16 15 15 16 14 13 11 14 15 15 15 14
21 23 22 18 19 21 23 25 24 22 27 29 23 19 27 27 23 27 26 24 24 23 25 24 22 23 22 23 21 21 20 19 18 18 17 17 16 15 14 18 18 17 17
19 22 26 26 23 22 21 25 26 26 25 29 30 25 24 29 31 24 30 24 27 25 27 28 24 22 25 24 25 22 20 21 21 20 20 20 20 20 19 17 20 21 20
22 23 25 27 26 27 25 25 28 26 26 27 31 31 33 28 32 35 23 28 25 26 28 27 27 24 19 21 20 20 22 23 21 21 23 22 22 24 23 22 20 21 24
29 26 24 26 27 25 26 25 27 28 29 26 27 33 30 33 34 36 35 26 29 24 25 27 26 25 25 22 22 23 22 22 18 24 25 25 26 26 26 26 23 23 24
32 30 28 24 26 26 26 26 24 27 28 28 26 30 30 29 33 35 37 35 28 27 27 29 28 29 26 22 19 20 19 23 28 30 27 30 27 26 26 28 29 28 28
32 32 31 26 25 26 27 24 23 23 25 27 23 27 32 31 31 32 34 35 37 33 28 31 32 26 27 27 16 4 3 11 30 35 35 33 31 31 32 31 30 31 31
31 29 30 26 25 26 26 24 24 22 22 25 23 22 27 34 27 33 32 35 36 35 32 32 31 28 21 23 27 10 3 4 3 17 31 34 33 33 33 33 33 33 33
35 30 29 26 25 21 24 25 23 24 22 22 23 26 28 28 35 26 30 31 34 36 36 33 31 33 27 23 19 30 29 9 1 3 6 22 28 30 30 30 30 31 32
30 24 26 25 26 20 19 23 23 23 25 19 19 23 25 28 30 35 29 31 30 32 33 34 33 31 32 25 21 10 20 22 21 7 8 9 16 29 28 26 27 29 31
28 23 18 22 19 20 17 19 22 22 21 20 21 18 22 25 29 29 33 30 29 32 31 30 27 30 28 27 25 22 21 9 11 11 8 11 14 20 26 26 28 29 31
Wind_Direction
24 104 189 184 187 170 171 169 163 158 153 147 138 135 130 121 117 118 118 120 123 122 123 124 116 104 102 94 96 103 96 95 97 98 91 105 105 89 74 101 82 87 84
341 283 197 189 188 182 174 173 170 167 164 153 149 142 138 135 135 126 127 123 124 128 128 137 120 112 103 103 96 100 98 98 100 88 86 97 105 92 89 97 96 96 86
356 256 202 187 193 191 181 180 182 180 177 167 164 152 153 150 149 145 141 136 136 143 138 130 122 118 115 104 103 105 105 104 104 93 93 89 92 87 88 87 85 82 78
354 192 185 189 194 192 190 185 188 192 187 178 175 167 168 162 161 159 164 146 162 143 141 136 141 127 121 112 107 116 118 112 104 110 100 96 89 82 82 82 80 76 78
27 110 180 194 199 197 197 192 189 191 187 184 181 173 185 175 174 174 172 162 169 153 167 159 151 136 135 124 119 121 129 106 75 71 112 110 103 89 83 83 81 83 75
19 49 160 211 204 206 202 197 192 188 195 188 188 189 198 200 184 187 181 175 172 173 161 162 159 148 143 139 132 128 134 107 87 63 89 103 95 97 101 96 87 83 80
10 37 43 219 217 214 210 208 201 196 200 195 196 210 204 216 196 193 189 187 183 190 184 178 174 160 151 145 143 146 148 123 93 98 112 155 133 109 103 97 90 84 79
10 34 3 247 224 215 212 212 211 209 209 205 203 217 224 215 201 189 202 194 193 188 189 190 178 167 163 160 160 158 161 137 114 131 157 185 138 123 115 109 101 93 90
10 13 25 27 232 216 217 217 220 222 221 217 215 224 226 213 204 205 203 199 200 200 199 194 184 180 180 181 189 169 163 162 141 150 194 248 147 133 128 120 112 101 98
353 3 353 32 0 239 228 224 222 222 221 223 223 227 221 219 215 213 210 207 204 211 205 198 188 184 180 184 186 179 167 159 121 167 158 178 168 156 151 141 128 113 107
325 326 321 324 284 328 240 235 228 222 222 221 226 227 224 225 221 218 213 215 208 212 212 203 195 192 193 197 195 187 178 168 153 190 215 223 216 179 180 176 174 173 163
310 303 300 298 294 276 263 248 234 228 225 221 221 225 224 223 220 223 219 217 213 213 215 206 202 202 203 207 212 205 190 174 214 199 228 238 228 198 203 208 208 213 221
304 295 290 290 284 275 261 258 228 227 226 223 220 216 226 219 218 217 212 212 216 211 210 206 207 209 208 203 221 218 214 195 209 212 233 243 241 219 213 225 229 231 236
296 290 284 275 274 270 260 250 248 235 230 221 214 214 217 216 224 216 207 213 214 213 210 213 213 215 212 205 222 218 211 215 213 218 225 237 251 236 225 226 238 243 247
289 289 283 277 271 264 257 250 249 243 235 223 214 211 216 215 223 210 207 213 212 209 207 216 215 219 216 213 216 215 221 218 216 221 230 241 246 244 238 233 232 242 248
279 281 280 272 268 264 252 247 244 246 242 232 228 216 214 216 218 205 213 213 211 205 208 214 216 212 214 217 222 219 225 224 226 226 230 235 239 243 241 240 239 235 236
285 280 280 278 277 259 253 248 241 244 243 237 233 226 219 218 218 224 221 213 211 210 211 213 213 210 217 218 223 222 225 226 230 229 229 237 241 245 247 240 237 239 238
290 283 278 274 271 268 258 249 245 240 247 239 234 231 227 222 218 219 218 211 216 215 212 211 216 215 215 219 223 219 226 230 231 232 234 232 234 239 240 244 239 238 240
304 294 289 278 267 260 255 252 247 243 244 245 235 232 228 224 220 222 221 217 208 208 212 216 221 225 213 210 214 226 232 236 233 235 237 238 235 238 241 242 241 242 240
320 301 278 278 267 263 248 250 247 245 242 240 236 234 233 230 231 228 227 218 215 212 216 216 218 222 224 225 223 229 228 231 239 235 237 240 239 242 239 242 241 241 244
315 306 293 268 266 259 247 241 242 242 239 238 235 234 230 231 226 225 226 225 219 213 217 218 217 225 224 216 221 237 239 238 243 246 242 242 241 245 243 244 243 248 248
305 301 295 274 262 256 255 243 239 242 246 237 237 238 232 232 231 231 221 220 222 219 221 218 215 213 228 226 212 196 238 252 247 243 244 244 247 244 246 245 246 247 249
298 290 291 294 258 254 249 245 239 247 248 234 232 240 239 240 238 233 226 219 220 221 223 223 223 216 213 226 219 196 201 228 246 242 242 242 239 239 244 243 240 243 246
295 281 282 287 289 255 247 244 236 236 247 232 227 239 246 246 240 231 228 222 220 222 221 223 227 223 212 220 215 226 234 237 213 332 250 239 238 235 237 247 242 244 240
328 284 276 279 281 257 252 238 237 235 242 247 234 241 243 245 243 234 236 232 226 221 220 224 228 228 232 225 229 225 229 244 250 218 263 276 248 237 237 240 239 241 237
331 332 303 281 272 267 243 245 232 236 239 245 236 247 250 245 242 241 232 233 227 230 230 224 230 234 230 237 241 237 231 222 220 226 240 245 248 248 244 246 241 238 239